Regional Weather Roundup
Issued by NWS Cleveland, OH

Home | Current Version | Previous Version | Graphics & Text | Print | Product List | Glossary On
Versions: 1 2 3 4 5 6 7 8 9 10 11 12 13 14 15 16 17 18 19 20 21 22 23 24 25 26 27 28 29 30 31 32 33 34 35 36 37 38 39 40 41 42 43 44 45 46 47 48 49 50
000
ASUS41 KCLE 261000
RWRCLE
OHIO REGIONAL WEATHER ROUNDUP
NATIONAL WEATHER SERVICE WILMINGTON, OH
600 AM EDT WED JUL 26 2017

NOTE: "FAIR" INDICATES FEW OR NO CLOUDS BELOW 12,000 FEET WITH NO
SIGNIFICANT WEATHER AND/OR OBSTRUCTIONS TO VISIBILITY.

OHZ001>008-015>018-024>027-034-035-043-044-261100-
   NORTHWEST OHIO

CITY           SKY/WX    TMP DP  RH WIND       PRES   REMARKS
DEFIANCE       FAIR     N/A N/A N/A CALM      30.16F
FINDLAY        FAIR      60  56  86 SE6       30.16F
TOLEDO EXPRESS FAIR      58  58 100 CALM      30.16F
TOLEDO EXEC    FAIR      62  59  90 CALM      30.17F
LIMA           FAIR      58  58 100 SE5       30.18F
$$

OHZ009>014-019>023-028>033-038-089-261100-
   NORTHEAST OHIO

CITY           SKY/WX    TMP DP  RH WIND       PRES   REMARKS
CLE-HOPKINS    FAIR      59  55  87 S3        30.20S
CLE-LAKEFRONT  FAIR      60  55  83 SE6       30.18S
CUY CO. ARPT   NOT AVBL
LORAIN-ELYRIA  FAIR      54  49  83 SE3       30.19F
ASHTABULA      FAIR      51  51 100 CALM      30.21S
AKRON-CANTON   FAIR      57  53  86 CALM      30.21R
WOOSTER        NOT AVBL
MANSFIELD      FAIR      57  57 100 S3        30.20S
YOUNGSTOWN     FAIR      55  52  89 CALM      30.20S
$$

OHZ042-051>053-060>062-070>072-077>081-261100-
  SOUTHWEST OHIO

CITY           SKY/WX    TMP DP  RH WIND       PRES   REMARKS
CINC-COVINGTON FAIR      62  60  93 SE5       30.15F
CINC-LUNKEN    FAIR      59  59 100 NE5       30.18S
HAMILTON       FAIR      58  57  97 CALM      30.17F
DAYTON         NOT AVBL
WRIGHT-PAT AFB NOT AVBL
DAYTON GENERAL FAIR      58  57  97 E3        30.17F
WILMINGTON     FAIR      54  54 100 NE5       30.17S FOG
$$

OHZ036-037-039>041-045>050-054>059-063>069-073>076-082>088-261100-
  CENTRAL AND SOUTHEAST OHIO

CITY           SKY/WX    TMP DP  RH WIND       PRES   REMARKS
COLUMBUS       FAIR      60  59  96 N3        30.18S
OSU AIRPORT    FAIR      59  59 100 N3        30.19R
BOLTON FIELD   NOT AVBL
RICKENBACK AFB NOT AVBL
NEWARK         FOG       57  56  96 CALM      30.19S VSB 1/4
MARION         FOG       56  54  93 CALM      30.19F VSB 3/4
LANCASTER      FOG       56  55  97 CALM      30.19S VSB 1/2
ZANESVILLE     FAIR      57  55  93 CALM      30.19R
NEW PHILLY     FOG       58  58 100 CALM      30.22R VSB 1/4
$$



USA.gov is the U.S. government's official web portal to all federal, state and local government web resources and services.